Regional Weather Roundup
Issued by NWS Northern Indiana

Home | Current Version | Previous Version | Text Only | Print | Product List | Glossary Off
Versions: 1 2 3 4 5 6 7 8 9 10 11 12 13 14 15 16 17 18 19 20 21 22 23 24 25 26 27 28 29 30 31 32 33 34 35 36 37 38 39 40 41 42 43 44 45 46 47 48 49 50

000
ASUS43 KIWX 060600
RWRIWX

KIWX WEATHER ROUNDUP
NATIONAL WEATHER SERVICE NORTHERN INDIANA
100 AM EST TUE DEC 06 2016

NOTE: "FAIR" INDICATES FEW OR NO CLOUDS BELOW 12,000 FEET WITH NO
SIGNIFICANT WEATHER AND/OR OBSTRUCTIONS TO VISIBILITY.

* THESE STATIONS ARE NOT UNDER NWS QUALITY CONTROL. THEY ALSO MAY NOT
  REPORT WEATHER SUCH AS PRECIPITATION OR FOG.

INZ001>027-060700-
NORTHERN INDIANA

CITY           SKY/WX    TMP DP  RH WIND       PRES   REMARKS
SOUTH BEND     CLEAR     30  28  92 E7        29.95F FOG     WCI  23
6HR MIN TEMP:  29; 6HR MAX TEMP:  31;

GOSHEN         PTCLDY    29  25  85 E7        29.94F FOG     WCI  22
6HR MIN TEMP:  29; 6HR MAX TEMP:  33;

MONTICELLO*    PTCLDY    32  28  85 E6        29.90F WCI  26
6HR MIN TEMP:  32; 6HR MAX TEMP:  34;

ANGOLA*        CLEAR     28  23  80 E9        29.95F WCI  20
FORT WAYNE     MOCLDY    29  27  92 E6        29.95F WCI  23
6HR MIN TEMP:  27; 6HR MAX TEMP:  31;

PERU/GRISSOM   CLOUDY    31  31  99 E10       29.89F WCI  23
6HR MIN TEMP:  31; 6HR MAX TEMP:  34;


$$
INZ028>050-060700-
CENTRAL INDIANA

CITY           SKY/WX    TMP DP  RH WIND       PRES   REMARKS
LAFAYETTE      PTCLDY    32  31  96 NE7       29.88F WCI  26
6HR MIN TEMP:  31; 6HR MAX TEMP:  36;

KOKOMO*        PTCLDY    31  30  96 E9        29.90F FOG     WCI  23
6HR MIN TEMP:  31; 6HR MAX TEMP:  34;

MUNCIE*        CLEAR     33  29  85 E8        29.90F WCI  26
6HR MIN TEMP:  31; 6HR MAX TEMP:  37;

INDIANAPOLIS   CLOUDY    36  31  82 E13       29.85F
6HR MIN TEMP:  35; 6HR MAX TEMP:  38;


$$
MIZ043>046-050>051-056>058-064>065-071>073-077>080-060700-
SOUTHWEST LOWER MICHIGAN

CITY           SKY/WX    TMP DP  RH WIND       PRES   REMARKS
BATTLE CREEK   CLEAR     29  27  92 E5        29.98F WCI  24
6HR MIN TEMP:  28; 6HR MAX TEMP:  33;

BENTON HARBOR  CLEAR     31  28  89 E8        29.95F FOG     WCI  23
6HR MIN TEMP:  31; 6HR MAX TEMP:  33;

COLDWATER*     CLOUDY    29  28  94 E6        29.96F FOG     WCI  23
6HR MIN TEMP:  27; 6HR MAX TEMP:  32;

HILLSDALE*     CLOUDY    30  28  93 E7        29.96F FOG     WCI  23
HOLLAND        CLOUDY    31  29  92 S9        29.97F WCI  23
6HR MIN TEMP:  30; 6HR MAX TEMP:  34;

GRAND RAPIDS   CLEAR     29  26  89 SE6       29.99F WCI  23
6HR MIN TEMP:  28; 6HR MAX TEMP:  34;

KALAMAZOO      CLEAR     29  26  89 CALM      29.97F FOG
6HR MIN TEMP:  29; 6HR MAX TEMP:  33;

STURGIS*       PTCLDY    29  27  92 E7        29.95F FOG     WCI  22
6HR MIN TEMP:  28; 6HR MAX TEMP:  32;

THREE RIVERS*  FAIR      29  29  96 E5        29.97F FOG     WCI  24
6HR MIN TEMP:  29; 6HR MAX TEMP:  33;


$$
OHZ001>008-015>018-024>025-060700-
NORTHWEST OHIO

CITY           SKY/WX    TMP DP  RH WIND       PRES   REMARKS
DEFIANCE       PTCLDY    31  26  82 E7        29.98F WCI  24
6HR MIN TEMP:  28; 6HR MAX TEMP:  31;

FINDLAY        PTCLDY    31  26  82 E8        29.97F WCI  23
6HR MIN TEMP:  29; 6HR MAX TEMP:  33;

TOLEDO EXPRESS PTCLDY    27  26  96 E5        30.02F WCI  22
6HR MIN TEMP:  25; 6HR MAX TEMP:  31;

TOLEDO METCALF PTCLDY    30  28  92 E5        30.03F WCI  25
6HR MIN TEMP:  28; 6HR MAX TEMP:  36;

LIMA           CLEAR     30  27  88 E12       29.94F WCI  20
6HR MIN TEMP:  29; 6HR MAX TEMP:  31;


$$
AND FOR LAKE MICHIGAN COASTAL AND OPEN LAKE BUOY OBSERVATIONS

STATION/POSITION TEMP    WIND        PRES    VSBY  WAVE
                 AIR SEA DIR/SP/G                  HT/PER
                 (F)     (DEG/KT/KT) (MB)    (MI)  (FT/S)
CALUMET HARBOR    36     110/ 10/ 13 1013.0F
BURNS HARBOR      34     140/ 15/ 22 1013.9F
SAINT JOSEPH      32      90/  2/  7 1015.2

$$
&&



USA.gov is the U.S. government's official web portal to all federal, state and local government web resources and services.